7 * 24
多渠道服务支持
STARLINK-34187是美国SpaceX公司于2025年5月13日发射的星链(Starlink)低轨宽带通信卫星,属于全球规模最大卫星互联网星座的组网卫星。星链星座旨在为全球提供覆盖偏远地区的高速宽带互联网服务,该卫星采用平板设计,搭载氪工质霍尔推进器,具备自主避撞能力,服役寿命约5-7年,退役后将主动离轨坠入大气层烧毁,减少太空垃圾。作为SpaceX批量生产的新一代低轨卫星,它进一步扩充了星链在轨卫星规模,提升星座通信覆盖容量与服务稳定性。
美国
(US)
| 数据来源 | 国际轨道数据 |
| 星历时间: | 2026-03-14T06:35:59+0800 20小时前 查看轨道信息 |
| 半长轴: | 6861.14km |
| 偏心率: | 0.0001435 |
| 轨道倾角: | 43.002° |
| 近地点辐角 | 269.959° |
| 升交点赤经 | 152.467° |
| 平近点角 | 90.110° |
| 近地点: | 482.018km |
| 远地点: | 483.988km |
| 周期: | 94.266分钟 |
| 每日圈数: | 15.275956 |